This is the latest recevied weather packets stored in our database for station/object K9JWM. If no packets are shown the sender has not sent any weather packets the latest 10 day(s).
| Time | Temp. | Humidity | Pressure | Rain* | Wind** | Luminosity | Snow |
|---|---|---|---|---|---|---|---|
| 1777891629 | 13.33° C | 45% | 991.4 hPa | 0 mm | - | - | - |
| 1777890730 | 13.33° C | 45% | 991.5 hPa | 0 mm | - | - | - |
| 1777889831 | 12.78° C | 48% | 992.1 hPa | 0 mm | - | - | - |
| 1777888929 | 12.22° C | 50% | 992.3 hPa | 0 mm | - | - | - |
| 1777888030 | 12.22° C | 47% | 992.4 hPa | 0 mm | - | - | - |
| 1777887129 | 12.22° C | 47% | 992.9 hPa | 0 mm | - | - | - |
| 1777886231 | 12.22° C | 47% | 993.3 hPa | 0 mm | - | - | - |
| 1777885330 | 12.78° C | 46% | 993.9 hPa | 0 mm | - | - | - |
| 1777884430 | 12.78° C | 49% | 994.2 hPa | 0 mm | - | - | - |
| 1777883530 | 12.78° C | 46% | 994.6 hPa | 0 mm | - | - | - |
| 1777882631 | 12.78° C | 45% | 994.7 hPa | 0 mm | - | - | - |
| 1777881730 | 12.78° C | 46% | 995 hPa | 0 mm | - | - | - |
| 1777880831 | 12.78° C | 46% | 995.5 hPa | 0 mm | - | - | - |
| 1777879929 | 12.78° C | 46% | 995.8 hPa | 0 mm | - | - | - |
| 1777879031 | 12.78° C | 45% | 996.3 hPa | 0 mm | - | - | - |
| 1777878129 | 12.78° C | 46% | 996.8 hPa | 0 mm | - | - | - |
| 1777877231 | 12.78° C | 46% | 997 hPa | 0 mm | - | - | - |
| 1777876330 | 12.22° C | 48% | 997.1 hPa | 0 mm | - | - | - |
| 1777875429 | 11.67° C | 46% | 997.4 hPa | 0 mm | - | - | - |
| 1777874530 | 11.67° C | 46% | 997.6 hPa | 0 mm | - | - | - |
| 1777873630 | 11.67° C | 45% | 998 hPa | 0 mm | - | - | - |
| 1777872730 | 12.22° C | 43% | 998.5 hPa | 0 mm | - | - | - |
| 1777871829 | 12.22° C | 45% | 998.7 hPa | 0 mm | - | - | - |
| 1777870930 | 12.22° C | 46% | 998.9 hPa | 0 mm | - | - | - |
| 1777870030 | 11.67° C | 46% | 999.2 hPa | 0 mm | - | - | - |
* Rain latest hour (hover to see other rain measurements)
** Current wind speed in m/s (hover to see current wind gust speed)